Time,TemperatureF,DewpointF,PressureIn,WindDirection,WindDirectionDegrees,WindSpeedMPH,WindSpeedGustMPH,Humidity,HourlyPrecipIn,Conditions,Clouds,dailyrainin,SoftwareType,DateUTC
2013-06-09 00:02:00,55.0,50.0,29.73,SSW,194,0.0,1.0,84,0.00,,,0.28,,2013-06-09 05:02:00,
2013-06-09 00:12:00,55.0,50.0,29.73,SSW,194,0.0,1.0,84,0.00,,,0.28,,2013-06-09 05:12:00,
2013-06-09 00:22:00,55.0,50.0,29.73,SSW,194,0.0,1.0,84,0.00,,,0.28,,2013-06-09 05:22:00,
2013-06-09 00:32:00,56.0,51.0,29.73,SSW,194,1.0,3.0,83,0.00,,,0.28,,2013-06-09 05:32:00,
2013-06-09 00:42:00,56.0,51.0,29.73,SSW,194,1.0,3.0,83,0.00,,,0.28,,2013-06-09 05:42:00,
2013-06-09 00:52:00,56.0,51.0,29.74,SSW,199,0.0,3.0,82,0.00,,,0.28,,2013-06-09 05:52:00,
2013-06-09 01:02:00,56.0,51.0,29.73,South,185,2.0,6.0,83,0.00,,,0.28,,2013-06-09 06:02:00,
2013-06-09 01:12:00,56.0,51.0,29.73,South,185,2.0,6.0,83,0.00,,,0.28,,2013-06-09 06:12:00,
2013-06-09 01:22:00,56.0,51.0,29.73,SSW,213,1.0,4.0,82,0.00,,,0.28,,2013-06-09 06:22:00,
2013-06-09 01:32:00,55.0,50.0,29.73,SSW,200,1.0,5.0,83,0.00,,,0.28,,2013-06-09 06:32:00,
2013-06-09 01:42:00,55.0,50.0,29.73,SSW,200,1.0,5.0,83,0.00,,,0.28,,2013-06-09 06:42:00,
2013-06-09 01:52:00,55.0,50.0,29.73,SSW,207,1.0,4.0,83,0.00,,,0.28,,2013-06-09 06:52:00,
2013-06-09 02:02:00,54.0,50.0,29.74,SSW,203,0.0,3.0,85,0.00,,,0.28,,2013-06-09 07:02:00,
2013-06-09 02:12:00,54.0,50.0,29.74,SSW,203,0.0,3.0,85,0.00,,,0.28,,2013-06-09 07:12:00,
2013-06-09 02:22:00,54.0,50.0,29.74,South,186,1.0,4.0,86,0.00,,,0.28,,2013-06-09 07:22:00,
2013-06-09 02:32:00,54.0,50.0,29.74,South,191,1.0,7.0,87,0.00,,,0.28,,2013-06-09 07:32:00,
2013-06-09 02:42:00,54.0,50.0,29.74,South,191,1.0,7.0,87,0.00,,,0.28,,2013-06-09 07:42:00,
2013-06-09 02:52:00,54.0,50.0,29.75,South,189,1.0,4.0,87,0.00,,,0.28,,2013-06-09 07:52:00,
2013-06-09 03:02:00,54.0,50.0,29.75,South,184,0.0,3.0,86,0.00,,,0.28,,2013-06-09 08:02:00,
2013-06-09 03:12:00,54.0,50.0,29.75,South,184,0.0,3.0,86,0.00,,,0.28,,2013-06-09 08:12:00,
2013-06-09 03:22:00,54.0,50.0,29.75,South,184,0.0,1.0,86,0.00,,,0.28,,2013-06-09 08:22:00,
2013-06-09 03:32:00,54.0,50.0,29.75,South,184,0.0,2.0,87,0.00,,,0.22,,2013-06-09 08:32:00,
2013-06-09 03:42:00,54.0,50.0,29.75,South,184,0.0,2.0,87,0.00,,,0.22,,2013-06-09 08:42:00,
2013-06-09 03:53:00,54.0,50.0,29.75,South,186,0.0,2.0,86,0.00,,,0.22,,2013-06-09 08:53:00,
2013-06-09 04:02:00,54.0,50.0,29.75,South,186,0.0,2.0,86,0.00,,,0.22,,2013-06-09 09:02:00,
2013-06-09 04:12:00,54.0,50.0,29.75,South,186,0.0,2.0,86,0.00,,,0.22,,2013-06-09 09:12:00,
2013-06-09 04:22:00,53.0,49.0,29.75,South,188,0.0,2.0,86,0.00,,,0.22,,2013-06-09 09:22:00,
2013-06-09 04:33:00,53.0,49.0,29.75,South,188,0.0,2.0,87,0.00,,,0.22,,2013-06-09 09:33:00,
2013-06-09 04:43:00,53.0,49.0,29.75,South,188,0.0,2.0,87,0.00,,,0.22,,2013-06-09 09:43:00,
2013-06-09 04:52:00,53.0,49.0,29.75,SSW,195,1.0,4.0,87,0.00,,,0.22,,2013-06-09 09:52:00,
2013-06-09 05:03:00,53.0,49.0,29.75,South,185,2.0,6.0,86,0.00,,,0.22,,2013-06-09 10:03:00,
2013-06-09 05:12:00,53.0,49.0,29.75,South,185,2.0,6.0,86,0.00,,,0.22,,2013-06-09 10:12:00,
2013-06-09 05:23:00,53.0,49.0,29.76,SSW,196,1.0,6.0,86,0.00,,,0.22,,2013-06-09 10:23:00,
2013-06-09 05:32:00,53.0,49.0,29.77,SSW,194,1.0,5.0,86,0.00,,,0.22,,2013-06-09 10:32:00,
2013-06-09 05:43:00,53.0,49.0,29.77,SSW,194,1.0,5.0,86,0.00,,,0.22,,2013-06-09 10:43:00,
2013-06-09 05:52:00,53.0,49.0,29.77,SSW,200,1.0,3.0,86,0.00,,,0.22,,2013-06-09 10:52:00,
2013-06-09 06:02:00,53.0,49.0,29.77,SW,225,0.0,4.0,86,0.00,,,0.22,,2013-06-09 11:02:00,
2013-06-09 06:12:00,53.0,49.0,29.77,SW,225,0.0,4.0,86,0.00,,,0.22,,2013-06-09 11:12:00,
2013-06-09 06:22:00,53.0,49.0,29.78,SSW,192,1.0,4.0,87,0.00,,,0.22,,2013-06-09 11:22:00,
2013-06-09 06:32:00,53.0,49.0,29.78,SW,215,1.0,5.0,87,0.00,,,0.22,,2013-06-09 11:32:00,
2013-06-09 06:42:00,53.0,49.0,29.78,SW,215,1.0,5.0,87,0.00,,,0.22,,2013-06-09 11:42:00,
2013-06-09 06:53:00,53.0,49.0,29.78,SSW,200,2.0,5.0,87,0.00,,,0.22,,2013-06-09 11:53:00,
2013-06-09 07:02:00,53.0,49.0,29.79,SSW,193,1.0,4.0,87,0.00,,,0.22,,2013-06-09 12:02:00,
2013-06-09 07:12:00,53.0,49.0,29.79,SSW,193,1.0,4.0,87,0.00,,,0.22,,2013-06-09 12:12:00,
2013-06-09 07:22:00,53.0,49.0,29.79,South,180,3.0,7.0,87,0.00,,,0.22,,2013-06-09 12:22:00,
2013-06-09 07:32:00,54.0,50.0,29.79,SSW,211,2.0,7.0,86,0.00,,,0.21,,2013-06-09 12:32:00,
2013-06-09 07:42:00,54.0,50.0,29.79,SSW,211,2.0,7.0,86,0.00,,,0.21,,2013-06-09 12:42:00,
2013-06-09 07:52:00,55.0,51.0,29.79,SSW,202,4.0,8.0,85,0.00,,,0.21,,2013-06-09 12:52:00,
2013-06-09 08:02:00,56.0,51.0,29.79,South,187,1.0,6.0,84,0.00,,,0.21,,2013-06-09 13:02:00,
2013-06-09 08:12:00,56.0,51.0,29.79,South,187,1.0,6.0,84,0.00,,,0.21,,2013-06-09 13:12:00,
2013-06-09 08:22:00,56.0,51.0,29.79,SSW,198,3.0,7.0,82,0.00,,,0.21,,2013-06-09 13:22:00,
2013-06-09 08:32:00,57.0,51.0,29.79,SSW,195,2.0,7.0,79,0.00,,,0.21,,2013-06-09 13:32:00,
2013-06-09 08:42:00,57.0,51.0,29.79,SSW,195,2.0,7.0,79,0.00,,,0.21,,2013-06-09 13:42:00,
2013-06-09 08:52:00,59.0,52.0,29.79,South,191,3.0,8.0,78,0.00,,,0.21,,2013-06-09 13:52:00,
2013-06-09 09:02:00,60.0,52.0,29.80,SSW,206,3.0,7.0,76,0.00,,,0.21,,2013-06-09 14:02:00,
2013-06-09 09:12:00,60.0,52.0,29.80,SSW,206,3.0,7.0,76,0.00,,,0.21,,2013-06-09 14:12:00,
2013-06-09 09:22:00,62.0,53.0,29.80,SW,234,3.0,7.0,73,0.00,,,0.21,,2013-06-09 14:22:00,
2013-06-09 09:32:00,63.0,55.0,29.80,SSW,201,2.0,7.0,74,0.00,,,0.21,,2013-06-09 14:32:00,
2013-06-09 09:42:00,63.0,55.0,29.80,SSW,201,2.0,7.0,74,0.00,,,0.21,,2013-06-09 14:42:00,
2013-06-09 09:52:00,64.0,53.0,29.80,SSW,201,2.0,7.0,67,0.00,,,0.21,,2013-06-09 14:52:00,
2013-06-09 10:02:00,66.0,51.0,29.80,SE,143,3.0,7.0,58,0.00,,,0.21,,2013-06-09 15:02:00,
2013-06-09 10:12:00,66.0,51.0,29.80,SE,143,3.0,7.0,58,0.00,,,0.21,,2013-06-09 15:12:00,
2013-06-09 10:22:00,67.0,51.0,29.80,SSW,212,2.0,9.0,57,0.00,,,0.21,,2013-06-09 15:22:00,
2013-06-09 10:33:00,68.0,50.0,29.80,SW,227,3.0,9.0,53,0.00,,,0.20,,2013-06-09 15:33:00,
2013-06-09 10:43:00,68.0,50.0,29.80,SW,227,3.0,9.0,53,0.00,,,0.20,,2013-06-09 15:43:00,
2013-06-09 10:53:00,69.0,51.0,29.80,South,188,3.0,8.0,52,0.00,,,0.20,,2013-06-09 15:53:00,
2013-06-09 11:03:00,69.0,51.0,29.80,South,176,3.0,10.0,52,0.00,,,0.20,,2013-06-09 16:03:00,
2013-06-09 11:13:00,69.0,51.0,29.80,South,176,3.0,10.0,52,0.00,,,0.20,,2013-06-09 16:13:00,
2013-06-09 11:23:00,69.0,51.0,29.80,SW,214,3.0,8.0,52,0.00,,,0.20,,2013-06-09 16:23:00,
2013-06-09 11:33:00,70.0,51.0,29.79,SSW,200,3.0,13.0,51,0.00,,,0.19,,2013-06-09 16:33:00,
2013-06-09 11:42:00,70.0,51.0,29.79,SSW,200,3.0,13.0,51,0.00,,,0.19,,2013-06-09 16:42:00,
2013-06-09 11:53:00,71.0,51.0,29.80,SSW,192,7.0,14.0,49,0.00,,,0.19,,2013-06-09 16:53:00,
2013-06-09 12:02:00,71.0,52.0,29.79,SSW,205,5.0,12.0,52,0.00,,,0.19,,2013-06-09 17:02:00,
2013-06-09 12:12:00,71.0,52.0,29.79,SSW,205,5.0,12.0,52,0.00,,,0.19,,2013-06-09 17:12:00,
2013-06-09 12:22:00,72.0,51.0,29.80,SSW,198,6.0,13.0,48,0.00,,,0.19,,2013-06-09 17:22:00,
2013-06-09 12:32:00,73.0,52.0,29.79,SW,221,4.0,9.0,48,0.00,,,0.16,,2013-06-09 17:32:00,
2013-06-09 12:42:00,73.0,52.0,29.79,SW,221,4.0,9.0,48,0.00,,,0.16,,2013-06-09 17:42:00,
2013-06-09 12:52:00,73.0,52.0,29.79,South,171,5.0,10.0,47,0.00,,,0.16,,2013-06-09 17:52:00,
2013-06-09 13:02:00,74.0,51.0,29.78,SE,137,3.0,9.0,45,0.00,,,0.16,,2013-06-09 18:02:00,
2013-06-09 13:12:00,74.0,51.0,29.78,SE,137,3.0,9.0,45,0.00,,,0.16,,2013-06-09 18:12:00,
2013-06-09 13:22:00,74.0,50.0,29.78,SSW,202,3.0,9.0,43,0.00,,,0.16,,2013-06-09 18:22:00,
2013-06-09 13:32:00,75.0,51.0,29.78,West,277,3.0,10.0,43,0.00,,,0.11,,2013-06-09 18:32:00,
2013-06-09 13:42:00,75.0,51.0,29.78,West,277,3.0,10.0,43,0.00,,,0.11,,2013-06-09 18:42:00,
2013-06-09 13:52:00,76.0,51.0,29.78,South,188,2.0,10.0,41,0.00,,,0.11,,2013-06-09 18:52:00,
2013-06-09 14:02:00,76.0,49.0,29.77,SW,229,3.0,10.0,38,0.00,,,0.11,,2013-06-09 19:02:00,
2013-06-09 14:12:00,76.0,49.0,29.77,SW,229,3.0,10.0,38,0.00,,,0.11,,2013-06-09 19:12:00,
2013-06-09 14:22:00,77.0,49.0,29.77,SSW,198,5.0,15.0,38,0.00,,,0.11,,2013-06-09 19:22:00,
2013-06-09 14:32:00,77.0,49.0,29.76,SW,218,4.0,9.0,38,0.00,,,0.11,,2013-06-09 19:32:00,
2013-06-09 14:42:00,77.0,49.0,29.76,SW,218,4.0,9.0,38,0.00,,,0.11,,2013-06-09 19:42:00,
2013-06-09 14:52:00,78.0,48.0,29.76,South,172,3.0,8.0,35,0.00,,,0.11,,2013-06-09 19:52:00,
2013-06-09 15:02:00,78.0,47.0,29.75,WSW,237,4.0,13.0,34,0.00,,,0.11,,2013-06-09 20:02:00,
2013-06-09 15:12:00,78.0,47.0,29.75,WSW,237,4.0,13.0,34,0.00,,,0.11,,2013-06-09 20:12:00,
2013-06-09 15:22:00,79.0,47.0,29.75,South,178,4.0,11.0,33,0.00,,,0.11,,2013-06-09 20:22:00,
2013-06-09 15:32:00,79.0,47.0,29.75,SSW,200,5.0,9.0,32,0.00,,,0.11,,2013-06-09 20:32:00,
2013-06-09 15:42:00,79.0,47.0,29.75,SSW,200,5.0,9.0,32,0.00,,,0.11,,2013-06-09 20:42:00,
2013-06-09 15:52:00,79.0,47.0,29.75,WNW,282,4.0,9.0,33,0.00,,,0.11,,2013-06-09 20:52:00,
2013-06-09 16:02:00,80.0,51.0,29.75,SSW,197,3.0,10.0,36,0.00,,,0.11,,2013-06-09 21:02:00,
2013-06-09 16:12:00,80.0,51.0,29.75,SSW,197,3.0,10.0,36,0.00,,,0.11,,2013-06-09 21:12:00,
2013-06-09 16:22:00,80.0,47.0,29.75,SSW,204,4.0,8.0,31,0.00,,,0.11,,2013-06-09 21:22:00,
2013-06-09 16:33:00,80.0,47.0,29.74,South,175,2.0,7.0,32,0.00,,,0.11,,2013-06-09 21:33:00,
2013-06-09 16:43:00,80.0,47.0,29.74,South,175,2.0,7.0,32,0.00,,,0.11,,2013-06-09 21:43:00,
2013-06-09 16:53:00,80.0,47.0,29.74,SE,136,2.0,7.0,32,0.00,,,0.11,,2013-06-09 21:53:00,
2013-06-09 17:02:00,80.0,47.0,29.74,WSW,258,2.0,7.0,31,0.00,,,0.11,,2013-06-09 22:02:00,
2013-06-09 17:13:00,80.0,47.0,29.74,WSW,258,2.0,7.0,31,0.00,,,0.11,,2013-06-09 22:13:00,
2013-06-09 17:23:00,81.0,48.0,29.74,SSE,161,2.0,6.0,32,0.00,,,0.11,,2013-06-09 22:23:00,
2013-06-09 17:33:00,80.0,49.0,29.74,SSW,196,2.0,7.0,34,0.00,,,0.10,,2013-06-09 22:33:00,
2013-06-09 17:42:00,80.0,49.0,29.74,SSW,196,2.0,7.0,34,0.00,,,0.10,,2013-06-09 22:42:00,
2013-06-09 17:52:00,81.0,48.0,29.74,SSE,163,1.0,7.0,32,0.00,,,0.10,,2013-06-09 22:52:00,
2013-06-09 18:02:00,80.0,46.0,29.74,SSW,196,2.0,7.0,30,0.00,,,0.10,,2013-06-09 23:02:00,
2013-06-09 18:12:00,80.0,46.0,29.74,SSW,196,2.0,7.0,30,0.00,,,0.10,,2013-06-09 23:12:00,
2013-06-09 18:22:00,81.0,49.0,29.73,SE,144,3.0,8.0,33,0.00,,,0.10,,2013-06-09 23:22:00,
2013-06-09 18:32:00,80.0,47.0,29.73,NNW,348,2.0,10.0,31,0.00,,,0.00,,2013-06-09 23:32:00,
2013-06-09 18:42:00,80.0,47.0,29.73,NNW,348,2.0,10.0,31,0.00,,,0.00,,2013-06-09 23:42:00,
2013-06-09 18:52:00,81.0,48.0,29.73,South,182,1.0,4.0,32,0.00,,,0.00,,2013-06-09 23:52:00,
2013-06-09 19:02:00,80.0,47.0,29.73,South,178,1.0,6.0,31,0.00,,,0.00,,2013-06-10 00:02:00,
2013-06-09 19:13:00,80.0,47.0,29.73,South,178,1.0,6.0,31,0.00,,,0.00,,2013-06-10 00:13:00,
2013-06-09 19:22:00,80.0,47.0,29.72,North,5,1.0,7.0,32,0.00,,,0.00,,2013-06-10 00:22:00,
2013-06-09 19:32:00,79.0,47.0,29.72,NNW,328,1.0,5.0,32,0.00,,,0.00,,2013-06-10 00:32:00,
2013-06-09 19:42:00,79.0,47.0,29.72,NNW,328,1.0,5.0,32,0.00,,,0.00,,2013-06-10 00:42:00,
2013-06-09 19:52:00,78.0,49.0,29.72,NNW,329,2.0,7.0,36,0.00,,,0.00,,2013-06-10 00:52:00,
2013-06-09 20:02:00,77.0,48.0,29.72,NNW,348,3.0,8.0,36,0.00,,,0.00,,2013-06-10 01:02:00,
2013-06-09 20:12:00,77.0,48.0,29.72,NNW,348,3.0,8.0,36,0.00,,,0.00,,2013-06-10 01:12:00,
2013-06-09 20:22:00,76.0,49.0,29.72,North,360,1.0,5.0,39,0.00,,,0.00,,2013-06-10 01:22:00,
2013-06-09 20:32:00,75.0,51.0,29.72,North,355,1.0,3.0,43,0.00,,,0.00,,2013-06-10 01:32:00,
2013-06-09 20:42:00,75.0,51.0,29.72,North,355,1.0,3.0,43,0.00,,,0.00,,2013-06-10 01:42:00,
2013-06-09 20:52:00,74.0,53.0,29.71,NNE,23,1.0,3.0,48,0.00,,,0.00,,2013-06-10 01:52:00,
2013-06-09 21:02:00,72.0,52.0,29.71,NW,315,0.0,2.0,49,0.00,,,0.00,,2013-06-10 02:02:00,
2013-06-09 21:12:00,72.0,52.0,29.71,NW,315,0.0,2.0,49,0.00,,,0.00,,2013-06-10 02:12:00,
2013-06-09 21:22:00,70.0,51.0,29.71,North,355,1.0,3.0,51,0.00,,,0.00,,2013-06-10 02:22:00,
2013-06-09 21:32:00,68.0,50.0,29.71,NW,324,1.0,4.0,52,0.00,,,0.00,,2013-06-10 02:32:00,
2013-06-09 21:52:00,67.0,51.0,29.72,NE,39,1.0,4.0,57,0.00,,,0.00,,2013-06-10 02:52:00,
2013-06-09 22:02:00,65.0,51.0,29.72,NNE,25,3.0,5.0,60,0.00,,,0.00,,2013-06-10 03:02:00,
2013-06-09 22:22:00,64.0,51.0,29.73,NNE,27,0.0,2.0,63,0.00,,,0.00,,2013-06-10 03:22:00,
2013-06-09 22:33:00,63.0,51.0,29.73,NNE,27,1.0,3.0,65,0.00,,,0.00,,2013-06-10 03:33:00,
2013-06-09 22:43:00,63.0,51.0,29.73,NNE,27,1.0,3.0,65,0.00,,,0.00,,2013-06-10 03:43:00,
2013-06-09 22:53:00,62.0,52.0,29.73,NNE,27,0.0,0.0,69,0.00,,,0.00,,2013-06-10 03:53:00,
2013-06-09 23:03:00,60.0,51.0,29.74,NNE,27,0.0,2.0,71,0.00,,,0.00,,2013-06-10 04:03:00,
2013-06-09 23:12:00,60.0,51.0,29.74,NNE,27,0.0,2.0,71,0.00,,,0.00,,2013-06-10 04:12:00,
2013-06-09 23:23:00,60.0,51.0,29.74,NNE,27,0.0,3.0,72,0.00,,,0.00,,2013-06-10 04:23:00,
2013-06-09 23:33:00,59.0,50.0,29.74,NNE,27,0.0,2.0,73,0.00,,,0.00,,2013-06-10 04:33:00,
2013-06-09 23:42:00,59.0,50.0,29.74,NNE,27,0.0,2.0,73,0.00,,,0.00,,2013-06-10 04:42:00,
2013-06-09 23:53:00,59.0,51.0,29.73,NNE,27,0.0,2.0,75,0.00,,,0.00,,2013-06-10 04:53:00,